Hyderabad, India

2:05 PM IST on May 28, 2017 (GMT +0530)
Hyderabad

Weather History for VOHY - October, 2011

Change the Weather History Date:

Thursday, October 6, 2011

  Actual Average Record
Temperature  
Mean Temperature 82 °F -  
Max Temperature 94 °F 83 °F 95 °F (2014)
Min Temperature 69 °F 68 °F 69 °F (2005)
Cooling Degree Days 16    
Growing Degree Days 32 (Base 50)    
Moisture  
Dew Point 62 °F    
Average Humidity 54    
Maximum Humidity 88    
Minimum Humidity 29    
Precipitation  
Precipitation 0.00 in 0.11 in - ()
Sea Level Pressure  
Sea Level Pressure 29.92 in    
Wind  
Wind Speed 1 mph ()    
Max Wind Speed 6 mph    
Max Gust Speed -    
Visibility 3.7 miles    
Events      
Averages and records for this station are not official NWS values.
T = Trace of Precipitation, MM = Missing Value Source: Averaged Metar Reports

Daily Weather History Graph

Daily Weather History Graph

Search for Another Location

Airport or City:

Trip Planner

Search our weather history database for the weather conditions in past years. The results will help you decide how hot, cold, wet, or windy it might be!

Date:

Astronomy

Oct. 06, 2011 Rise Set
Actual Time 6:07 AM IST 6:01 PM IST
Civil Twilight 5:45 AM IST 6:23 PM IST
Nautical Twilight 5:20 AM IST 6:48 PM IST
Astronomical Twilight 4:55 AM IST 7:13 PM IST
Moon 2:18 PM IST (10/6) 1:13 AM IST (10/6)
Length of Visible Light 12h 37m
Length of Day
11h 54m
Waxing Gibbous, 71% of the Moon is Illuminated
Oct 6
Waxing Gibbous
Oct 12
Full
Oct 20
Last Quarter
Oct 27
New
Nov 2
First Quarter

Hourly Weather History & Observations

Time (IST) Temp. Heat Index Dew Point Humidity Pressure Visibility Wind Dir Wind Speed Gust Speed Precip Events Conditions
2:30 AM 72 °F - 69 °F 86% 29.84 in 2 mi Calm Calm - -   Haze
5:30 AM 71 °F - 68 °F 88% 29.86 in 2 mi Calm Calm - -   Haze
6:10 AM 69.8 °F - 64.4 °F 83% 29.98 in 1.9 mi Calm Calm - N/A   Haze
6:40 AM 69.8 °F - 64.4 °F 83% 29.98 in - Calm Calm - N/A   Haze
7:10 AM 71.6 °F - 66.2 °F 83% 30.01 in 1.9 mi Calm Calm - N/A   Haze
7:40 AM 75.2 °F - 64.4 °F 69% 30.01 in - Calm Calm - N/A   Haze
8:30 AM 82 °F - 67 °F 50% 29.90 in 2 mi Calm Calm - -   Haze
10:10 AM 84.2 °F 84.4 °F 60.8 °F 45% 30.04 in 3.7 mi NE 3.5 mph - N/A   Unknown
11:10 AM 84.2 °F 83.8 °F 59.0 °F 42% 30.01 in 3.7 mi East 4.6 mph - N/A   Scattered Clouds
11:30 AM 90 °F - 72 °F 46% 29.85 in 6 mi Calm Calm - -   Mostly Cloudy
12:10 PM 86.0 °F 84.9 °F 57.2 °F 37% 29.98 in 5.0 mi Calm Calm - N/A   Scattered Clouds
1:10 PM 87.8 °F 86.1 °F 55.4 °F 33% 29.95 in 5.0 mi Variable 3.5 mph - N/A   Scattered Clouds
2:10 PM 87.8 °F 85.7 °F 53.6 °F 31% 29.92 in 5.0 mi NW 4.6 mph - N/A   Scattered Clouds
2:30 PM 93 °F - 75 °F 46% 29.75 in 6 mi NW 3.5 mph - -   Mostly Cloudy
3:10 PM 87.8 °F - 51.8 °F 29% 29.89 in 5.0 mi WNW 5.8 mph - N/A   Scattered Clouds
4:10 PM 87.8 °F 86.1 °F 55.4 °F 33% 29.89 in 3.7 mi WNW 5.8 mph - N/A   Scattered Clouds
5:10 PM 87.8 °F - 51.8 °F 29% 29.89 in 3.7 mi Variable 2.3 mph - N/A   Scattered Clouds
5:30 PM 87 °F - 73 °F 54% 29.76 in 6 mi Calm Calm - -   Mostly Cloudy
6:10 PM 82.4 °F 81.7 °F 55.4 °F 39% 29.92 in 3.7 mi NW 4.6 mph - N/A   Scattered Clouds
7:10 PM 80.6 °F 80.8 °F 57.2 °F 45% 29.92 in - North - - N/A   Partly Cloudy
8:10 PM 78.8 °F - 59.0 °F 51% 29.95 in 3.7 mi Calm Calm - N/A   Partly Cloudy
8:30 PM 79 °F - 71 °F 72% 29.85 in 2 mi Calm Calm - -   Haze
9:10 PM 77.0 °F - 60.8 °F 57% 29.98 in 3.7 mi NNW 3.5 mph - N/A   Partly Cloudy
11:30 PM 75 °F - 68 °F 74% 29.87 in 2 mi Calm Calm - -   Haze